Sennybridge, United Kingdom
Current Conditions -  °F | °C
As of 3:50 AM on Monday 22 Dec 2014 (Local Time) from EGOP Reporting Station
Broken Clouds Broken Clouds  
Wind Chill: 54°   Ceiling: 900
Heat Index: 54°   Visibility: 3mi
Dew Point: 52°   Wind: 32mph
Humidity: 94%   Direction: 240°WSW
Pressure: 30.09"   Gusts: NA
Location:  52.07°N, 3.62°W
Report Text: EGOP 220350Z AUTO 24028KT 5000 // BKN009/// BKN017/// 12/11 Q1019
Loading
Personal Weather Stations






























Interactive Weather Map New forecast layout! Learn more

10-Day Weather Forecast

Advertisements
Track Severe Weather on mobile